Content
SEND FEEDBACK

Daily
Averages
Monthly
Summary
United States of America

FAYETTEVILLE, TENNESSEE


Home > North America > United States > Tennessee
Elevation: 700 feet     Latitude: 35 10N     Longitude: 086 33W

WEATHER
 
SELECT A DAY
Number of Records: 297,994;   Date Range: 4/22/02 - 7/29/14
 
SHARE

PRINT THIS DATA

[ ← Previous Day ]
WEATHER ALMANAC - AUGUST 24, 2013
[ Next Day → ]
[ °C ]   °F
Weather ElementAverageHighLow
Temperature76.2 °F87.8 °F (2:35 pm)68 °F (3:15 am)
Dewpoint65.3 °F69.8 °F (7:15 pm)60.8 °F (2:55 pm)
Humidity71.6 %94 % (1:15 am)40 % (2:55 pm)
Barometer30.15 in30.23 in (11:55 pm)30.08 in (12:35 am)
Wind Speed0.8 mph5.8 mph (5:15 pm)
Weather ElementAverage
Visibility7.7 mi
Wind DirectionNNE (26.8 °)

Weather ElementTotal
Precipitation---
Cooling Degree Days12.9 (Base 65)
Growing Degree Days27.9 (Base 50)
Averaged from 71 records on August 24, 2013
WEATHER CONDITIONS BREAKOUT
WIND DIRECTION BREAKOUT
WEATHER BY HOUR - AUGUST 24, 2013
[ °C ]   °F
Local TimeTemperatureDewpointHumidityBarometerVisibilityWind DirectionWind SpeedGust SpeedPrecipitationEventsConditions
12:35 AM71.6 °F68.0 °F88 %30.08 in7.0 miCalmClear
12:55 AM71.6 °F68.0 °F88 %30.08 in5.0 miCalmClear
1:15 AM69.8 °F68.0 °F94 %30.09 in5.0 miCalmClear
1:35 AM69.8 °F66.2 °F88 %30.08 in5.0 miCalmClear
1:55 AM69.8 °F66.2 °F88 %30.09 in3.0 miCalmClear
2:15 AM69.8 °F66.2 °F88 %30.09 in5.0 miCalmClear
2:35 AM69.8 °F66.2 °F88 %30.09 in4.0 miCalmClear
2:55 AM69.8 °F66.2 °F88 %30.09 in4.0 miCalmClear
3:15 AM68.0 °F64.4 °F88 %30.09 in5.0 miCalmClear
3:35 AM69.8 °F66.2 °F88 %30.10 in5.0 miCalmClear
3:55 AM68.0 °F64.4 °F88 %30.10 in3.0 miCalmClear
4:15 AM68.0 °F64.4 °F88 %30.10 in4.0 miCalmClear
4:35 AM68.0 °F64.4 °F88 %30.10 in4.0 miCalmClear
4:55 AM68.0 °F64.4 °F88 %30.10 in5.0 miCalmClear
5:15 AM68.0 °F64.4 °F88 %30.11 in4.0 miCalmClear
5:35 AM68.0 °F64.4 °F88 %30.11 in5.0 miCalmClear
5:55 AM68.0 °F64.4 °F88 %30.12 in7.0 miCalmClear
6:15 AM68.0 °F64.4 °F88 %30.13 in4.0 miCalmClear
6:35 AM68.0 °F62.6 °F83 %30.14 in4.0 miCalmClear
6:55 AM68.0 °F64.4 °F88 %30.14 in2.5 miCalmClear
7:15 AM68.0 °F64.4 °F88 %30.15 in3.0 miCalmClear
7:35 AM69.8 °F64.4 °F83 %30.16 in5.0 miCalmClear
7:55 AM69.8 °F66.2 °F88 %30.16 in5.0 miCalmClear
8:15 AM71.6 °F66.2 °F83 %30.17 in7.0 miCalmClear
8:35 AM71.6 °F66.2 °F83 %30.17 in7.0 miCalmClear
8:55 AM75.2 °F66.2 °F73 %30.18 in10.0 miCalmClear
9:15 AM77.0 °F64.4 °F65 %30.18 in10.0 miCalmClear
9:35 AM77.0 °F64.4 °F65 %30.19 in10.0 miESE (120°)4.6 mphClear
9:55 AM78.8 °F64.4 °F61 %30.18 in10.0 miCalmClear
10:15 AM78.8 °F66.2 °F65 %30.19 in10.0 miCalmClear
10:35 AM80.6 °F64.4 °F58 %30.18 in10.0 miCalmClear
10:55 AM80.6 °F62.6 °F54 %30.18 in10.0 miCalmClear
11:15 AM82.4 °F62.6 °F51 %30.18 in10.0 miCalmClear
11:35 AM82.4 °F62.6 °F51 %30.18 in10.0 miCalmClear
11:55 AM82.4 °F62.6 °F51 %30.18 in10.0 miSSE (150°)3.5 mphClear
12:15 PM84.2 °F62.6 °F48 %30.18 in10.0 miCalmClear
12:35 PM82.4 °F62.6 °F51 %30.18 in10.0 miSE (140°)4.6 mphScattered Clouds
12:55 PM86.0 °F62.6 °F45 %30.17 in10.0 miCalmScattered Clouds
1:15 PM86.0 °F62.6 °F45 %30.17 in10.0 miESE (120°)3.5 mphScattered Clouds
1:35 PM86.0 °F62.6 °F45 %30.17 in10.0 miSSE (160°)4.6 mphScattered Clouds
1:55 PM86.0 °F62.6 °F45 %30.17 in10.0 miCalmScattered Clouds
2:15 PM86.0 °F62.6 °F45 %30.16 in10.0 miESE (120°)3.5 mphScattered Clouds
2:35 PM87.8 °F62.6 °F43 %30.16 in10.0 miSE (130°)3.5 mphScattered Clouds
2:55 PM87.8 °F60.8 °F40 %30.16 in10.0 miSSE (160°)3.5 mphClear
3:15 PM86.0 °F60.8 °F43 %30.15 in10.0 miSE (130°)4.6 mphClear
3:35 PM86.0 °F62.6 °F45 %30.15 in7.0 miESE (110°)4.6 mphScattered Clouds
3:55 PM86.0 °F62.6 °F45 %30.15 in7.0 miCalmScattered Clouds
4:15 PM86.0 °F60.8 °F43 %30.15 in10.0 miSSE (160°)3.5 mphClear
4:35 PM87.8 °F60.8 °F40 %30.14 in10.0 miCalmClear
4:55 PM87.8 °F60.8 °F40 %30.14 in10.0 miCalmClear
5:15 PM86.0 °F62.6 °F45 %30.14 in10.0 miSE (140°)5.8 mphMostly Cloudy
5:35 PM86.0 °F62.6 °F45 %30.14 in10.0 miSE (130°)3.5 mphScattered Clouds
5:55 PM82.4 °F64.4 °F54 %30.14 in10.0 miCalmClear
6:15 PM82.4 °F66.2 °F58 %30.14 in10.0 miCalmClear
6:35 PM80.6 °F68.0 °F65 %30.14 in10.0 miCalmClear
6:55 PM80.6 °F68.0 °F65 %30.14 in10.0 miCalmClear
7:15 PM77.0 °F69.8 °F78 %30.15 in10.0 miCalmClear
7:35 PM75.2 °F69.8 °F83 %30.16 in10.0 miCalmClear
7:55 PM77.0 °F69.8 °F78 %30.17 in10.0 miCalmClear
8:15 PM73.4 °F69.8 °F88 %30.17 in10.0 miCalmClear
8:35 PM73.4 °F69.8 °F88 %30.17 in7.0 miCalmClear
8:55 PM73.4 °F69.8 °F88 %30.19 in7.0 miCalmClear
9:15 PM73.4 °F69.8 °F88 %30.19 in7.0 miCalmClear
9:35 PM71.6 °F69.8 °F94 %30.20 in7.0 miCalmClear
9:55 PM71.6 °F68.0 °F88 %30.21 in7.0 miCalmClear
10:15 PM71.6 °F69.8 °F94 %30.22 in7.0 miCalmClear
10:35 PM71.6 °F68.0 °F88 %30.21 in7.0 miCalmClear
10:55 PM71.6 °F68.0 °F88 %30.22 in7.0 miCalmClear
11:15 PM71.6 °F69.8 °F94 %30.22 in7.0 miCalmClear
11:35 PM71.6 °F68.0 °F88 %30.22 in10.0 miCalmClear
11:55 PM73.4 °F68.0 °F83 %30.23 in10.0 miSE (130°)5.8 mphClear
Hourly data recorded from KMDQ, located miles away from Fayetteville, Tennessee







STORIES FROM OUR PARTNERS